Location: Unspecified
(41.1637°N, 24.2901°E)
Time: 15:21:32
(UTC+01:00)

ISS - Pass Details

Date: 25 November 2020
Orbit: 418 x 421 km, 51.6° (Epoch: 29 November)

Event Time Altitude Azimuth Distance (km) Brightness Sun altitude
Rises 17:21:39 0° 272° (W) 2,358 1.6 -15.7°
Reaches altitude 10° 17:24:05 10° 289° (WNW) 1,496 -0.1 -16.1°
Maximum altitude 17:26:44 21° 341° (NNW) 993 -1.8 -16.6°
Enters shadow 17:27:52 18° 9° (N) 1,103 -1.9 -16.8°
